This is the latest recevied weather packets stored in our database for station/object KC3QLX. If no packets are shown the sender has not sent any weather packets the latest 10 day(s).
| Time | Temp. | Humidity | Pressure | Rain* | Wind** | Luminosity | Snow |
|---|---|---|---|---|---|---|---|
| 1777733520 | 11.11° C | 60% | 1013.3 hPa | 0 mm | - | 877 W/m² | - |
| 1777733216 | 11.11° C | 66% | 1013 hPa | 0 mm | - | 846 W/m² | - |
| 1777732913 | 10.56° C | 64% | 1013 hPa | 0 mm | - | 886 W/m² | - |
| 1777732609 | 10.56° C | 69% | 1013.1 hPa | 0 mm | - | 827 W/m² | - |
| 1777732307 | 10° C | 66% | 1013 hPa | 0 mm | - | 810 W/m² | - |
| 1777732003 | 10.56° C | 68% | 1013.4 hPa | 0 mm | - | 824 W/m² | - |
| 1777731700 | 10° C | 66% | 1013.4 hPa | 0 mm | - | 774 W/m² | - |
| 1777731397 | 9.44° C | 67% | 1013.5 hPa | 0 mm | - | 732 W/m² | - |
| 1777731095 | 9.44° C | 69% | 1013.6 hPa | 0 mm | - | 714 W/m² | - |
| 1777730794 | 10° C | 67% | 1013.4 hPa | 0 mm | - | 714 W/m² | - |
| 1777730490 | 10° C | 70% | 1013.7 hPa | 0 mm | - | 712 W/m² | - |
| 1777730186 | 10° C | 68% | 1013.3 hPa | 0 mm | - | 669 W/m² | - |
| 1777729883 | 9.44° C | 71% | 1013.5 hPa | 0 mm | - | 633 W/m² | - |
| 1777729580 | 8.89° C | 71% | 1013.5 hPa | 0 mm | - | 559 W/m² | - |
| 1777729276 | 8.89° C | 75% | 1013.3 hPa | 0 mm | - | 528 W/m² | - |
| 1777728973 | 9.44° C | 70% | 1013 hPa | 0 mm | - | 314 W/m² | - |
| 1777728669 | 8.89° C | 75% | 1013.3 hPa | 0 mm | - | 558 W/m² | - |
| 1777728367 | 8.89° C | 74% | 1013.4 hPa | 0 mm | - | 301 W/m² | - |
| 1777728064 | 8.33° C | 76% | 1013.3 hPa | 0 mm | - | 275 W/m² | - |
| 1777727760 | 8.33° C | 75% | 1013.1 hPa | 0 mm | - | 195 W/m² | - |
| 1777727457 | 8.33° C | 76% | 1013.3 hPa | 0 mm | - | 175 W/m² | - |
| 1777727155 | 7.78° C | 79% | 1013.3 hPa | 0 mm | - | 179 W/m² | - |
| 1777726853 | 7.78° C | 77% | 1013.1 hPa | 0 mm | - | 155 W/m² | - |
| 1777726548 | 7.78° C | 82% | 1013.3 hPa | 0 mm | - | 148 W/m² | - |
| 1777726246 | 7.78° C | 79% | 1013.3 hPa | 0 mm | - | 174 W/m² | - |
* Rain latest hour (hover to see other rain measurements)
** Current wind speed in m/s (hover to see current wind gust speed)